This is the latest recevied weather packets stored in our database for station/object K2CAT. If no packets are shown the sender has not sent any weather packets the latest 10 day(s).
| Time | Temp. | Humidity | Pressure | Rain* | Wind** | Luminosity | Snow |
|---|---|---|---|---|---|---|---|
| 1777508424 | 15° C | 64% | 1009.9 hPa | 0 mm | - | 0 W/m² | - |
| 1777508121 | 15.56° C | 63% | 1009.8 hPa | 0 mm | - | 0 W/m² | - |
| 1777507818 | 15.56° C | 63% | 1009.6 hPa | 0 mm | - | 0 W/m² | - |
| 1777507515 | 15.56° C | 63% | 1009.8 hPa | 0 mm | - | 0 W/m² | - |
| 1777507211 | 15.56° C | 63% | 1009.6 hPa | 0 mm | - | 0 W/m² | - |
| 1777506909 | 15.56° C | 62% | 1009.3 hPa | 0 mm | - | 0 W/m² | - |
| 1777506606 | 15.56° C | 62% | 1009.4 hPa | 0 mm | - | 1 W/m² | - |
| 1777506302 | 16.11° C | 62% | 1009.3 hPa | 0 mm | - | 1 W/m² | - |
| 1777505998 | 16.11° C | 61% | 1009.3 hPa | 0 mm | - | 2 W/m² | - |
| 1777505694 | 16.11° C | 61% | 1009.3 hPa | 0 mm | - | 2 W/m² | - |
| 1777505391 | 16.11° C | 61% | 1009.3 hPa | 0 mm | - | 4 W/m² | - |
| 1777505087 | 16.11° C | 60% | 1009.2 hPa | 0 mm | - | 6 W/m² | - |
| 1777504784 | 16.67° C | 60% | 1009.1 hPa | 0 mm | - | 8 W/m² | - |
| 1777504482 | 16.67° C | 59% | 1009.1 hPa | 0 mm | - | 9 W/m² | - |
| 1777504177 | 16.67° C | 59% | 1009.1 hPa | 0 mm | - | 14 W/m² | - |
| 1777503873 | 16.67° C | 58% | 1009.2 hPa | 0 mm | - | 16 W/m² | - |
| 1777503569 | 16.67° C | 59% | 1009.3 hPa | 0 mm | - | 19 W/m² | - |
| 1777503267 | 16.67° C | 58% | 1009 hPa | 0 mm | - | 26 W/m² | - |
| 1777502963 | 16.67° C | 57% | 1009.3 hPa | 0 mm | - | 29 W/m² | - |
| 1777502661 | 16.67° C | 58% | 1009 hPa | 0 mm | - | 31 W/m² | - |
| 1777502357 | 17.22° C | 58% | 1009.3 hPa | 0 mm | - | 37 W/m² | - |
| 1777502054 | 17.22° C | 58% | 1009.3 hPa | 0 mm | - | 43 W/m² | - |
| 1777501750 | 17.22° C | 58% | 1009.2 hPa | 0 mm | - | 44 W/m² | - |
| 1777501448 | 17.22° C | 58% | 1009.2 hPa | 0 mm | - | 40 W/m² | - |
| 1777501145 | 17.22° C | 58% | 1009.6 hPa | 0 mm | - | 40 W/m² | - |
* Rain latest hour (hover to see other rain measurements)
** Current wind speed in m/s (hover to see current wind gust speed)